Regional Weather Roundup
Issued by NWS

Home | Current Version | Previous Version | Graphics & Text | Print | Product List | Glossary On
Versions: 1 2 3 4 5 6 7 8 9 10 11 12 13 14 15 16 17 18 19 20 21 22 23 24 25 26 27 28 29 30 31 32 33 34 35 36 37 38 39 40 41 42 43 44 45 46 47 48 49 50
000
ASUS43 KBIS 272102
RWRND

NORTH DAKOTA REGIONAL WEATHER ROUNDUP
NATIONAL WEATHER SERVICE BISMARCK ND
400 PM CDT THU JUL 27 2017

NOTE: "FAIR" INDICATES FEW OR NO CLOUDS BELOW 12,000 FEET WITH NO
SIGNIFICANT WEATHER AND/OR OBSTRUCTIONS TO VISIBILITY.


NDZ001>003-009>011-017-272200-
NORTHWEST NORTH DAKOTA

CITY           SKY/WX    TMP DP  RH WIND       PRES   REMARKS
WILLISTON      PTSUNNY   71  63  75 E7        30.04R
MINOT          CLOUDY    83  57  41 VRB6      30.06F
MINOT AFB      CLOUDY    81  57  44 E12       30.05F
$$

NDZ018>021-031>035-040>046-272200-
SOUTHWEST NORTH DAKOTA

CITY           SKY/WX    TMP DP  RH WIND       PRES   REMARKS
BISMARCK       MOSUNNY   83  56  39 E9        30.07F
DICKINSON      PTSUNNY   77  58  51 NE16G28   30.05F
GARRISON         N/A     72  63  73 SE6       30.08R
HETTINGER ARPT CLOUDY    82  51  34 S17G25    30.09R
$$

NDZ004>008-012>016-024-026-027-054-272200-
NORTHEAST NORTH DAKOTA

CITY           SKY/WX    TMP DP  RH WIND       PRES   REMARKS
GRAND FORKS    PTSUNNY   84  60  44 VRB5      30.07F
GRND FRKS AFB  MOSUNNY   83  56  39 SW6       30.09F
DEVILS LAKE    PTSUNNY   81  55  40 SE7       30.10F
$$

NDZ022-023-025-028>030-036>039-047>053-272200-
SOUTHEAST NORTH DAKOTA

CITY           SKY/WX    TMP DP  RH WIND       PRES   REMARKS
FARGO          MOSUNNY   84  58  40 N6        30.08F
JAMESTOWN      CLOUDY    82  56  40 E8        30.09F
$$





USA.gov is the U.S. government's official web portal to all federal, state and local government web resources and services.